Location: Pulvis Stellarum Observatory
(41.6962°N, 71.4263°W)
Time: 21:45:51
(UTC-04:00)

Daily predictions for brighter satellites

Satellite Brightness Start Highest point End
(mag) Time Altitude Azimuth Time Altitude Azimuth Time Altitude Azimuth
Meteor 2-15 Rocket 4.4 20:47:18 10° S 20:53:20 75° E 20:59:24 10° NNE
Cosmos 2082 4.4 20:48:32 10° SW 20:54:04 60° WNW 20:59:39 10° NNE
Cosmos 1184 Rocket 3.0 20:54:27 10° SSW 20:57:48 80° W 21:01:11 10° N
NOSS 3-4 (A) 4.2 20:51:40 10° NW 20:58:40 65° WSW 21:06:06 10° SSE
Cosmos 2297 Rocket 3.0 20:53:10 10° SW 20:58:43 58° WNW 21:04:20 10° NNE
NOSS 3-4 (C) 4.2 20:51:45 10° NW 20:58:46 65° WSW 21:06:13 10° SSE
Cosmos 1842 Rocket 4.2 20:55:01 10° NNW 20:59:20 57° W 21:03:35 10° S
Cosmos 1605 Rocket 4.4 20:54:45 10° NNW 21:00:59 70° W 21:07:16 10° S
Cosmos 1356 Rocket 4.1 20:57:10 10° SSE 21:01:06 38° E 21:05:06 10° NNE
H-2A R/B 3.7 20:59:23 10° ESE 21:03:22 22° ENE 21:07:24 10° NNE
Cosmos 1741 Rocket 4.0 21:01:09 10° SSW 21:06:26 76° ESE 21:11:45 10° NNE
Cosmos 2263 Rocket 4.0 21:06:13 10° ESE 21:08:14 12° E 21:10:14 10° ENE
Cosmos 1818 3.6 21:03:22 10° NNW 21:08:51 90° NE 21:14:16 10° SSE
YAOGAN 6 2.6 21:05:31 10° SSE 21:09:08 84° ENE 21:12:50 10° N
Meteor 1-21 Rocket 4.4 21:05:06 10° S 21:10:35 52° E 21:16:00 10° NNE
ATLAS 5 CENTAUR R/B 1.9 21:07:01 10° SW 21:11:39 82° NW 21:16:44 10° NE
Cosmos 1726 3.6 21:11:52 10° NNE 21:14:49 22° ENE 21:17:27 12° SE
RESURS DK-1 3.5 21:13:45 10° N 21:17:32 32° ENE 21:20:58 12° ESE
Cosmos 1300 4.3 21:15:12 10° NNE 21:18:05 20° ENE 21:20:36 12° ESE
Cosmos 1076 Rocket 3.5 21:15:03 10° S 21:19:22 66° E 21:23:42 10° NNE
Cosmos 1802 Rocket 4.2 21:14:47 10° N 21:20:49 57° E 21:26:51 10° SSE
Cosmos 1408 Rocket 3.9 21:18:41 10° SSE 21:22:45 43° E 21:26:52 10° NNE
Cosmos 2237 Rocket 4.2 21:22:58 10° NW 21:27:22 24° WSW 21:31:46 10° SSW
ERBS 4.0 21:27:23 10° NNW 21:30:19 26° NE 21:33:11 10° E
Cosmos 1939 Rocket 4.4 21:27:07 10° SSW 21:30:46 34° W 21:34:31 10° NNW
Cosmos 2221 3.1 21:28:54 10° NNW 21:33:14 59° W 21:37:32 10° S
Cosmos 1340 Rocket 4.5 21:29:30 10° SW 21:33:14 36° WNW 21:37:01 10° N
CZ-4B DEB 4.3 21:31:59 10° SSW 21:34:39 31° W 21:37:22 10° NNW
Cosmos 1603 3.9 21:30:25 10° NNW 21:36:02 59° ENE 21:40:30 16° SE
Meteor 1-29 4.5 21:35:00 10° N 21:38:13 38° WNW 21:41:26 10° SW
Tiangong 1 1.0 21:36:53 10° W 21:39:41 67° N 21:42:16 11° E
Cosmos 371 Rocket 3.9 21:39:17 10° N 21:43:54 44° ENE 21:47:08 18° SE
Cosmos 1674 3.3 21:40:23 10° SSW 21:44:05 56° W 21:47:47 10° N
MetOp-A 4.2 21:40:22 11° SSE 21:45:29 86° WSW 21:50:53 10° NNW
ARGOS 3.2 21:42:43 14° SSE 21:47:25 77° ENE 21:52:50 10° N
Cosmos 2016 Rocket 4.0 21:41:11 10° N 21:47:28 77° E 21:52:56 14° SSE
CZ-3B R/B 4.1 21:47:12 10° SW 21:50:18 90° NW 22:01:26 10° NE
Cosmos 841 Rocket 4.5 21:45:43 10° N 21:50:30 34° ENE 21:53:48 17° ESE
SPOT 5 2.9 21:47:02 16° SSE 21:50:52 75° ENE 21:55:59 10° N
Cosmos 1943 4.0 21:45:48 10° N 21:51:06 40° ENE 21:54:57 18° ESE
Lacrosse 5 1.9 21:46:42 10° NW 21:51:47 78° NE 21:55:19 20° SE
Cosmos 1763 Rocket 4.0 21:47:22 10° N 21:52:15 43° ENE 21:55:27 20° SE
Cosmos 1908 4.3 21:48:44 10° NNW 21:52:25 43° W 21:56:04 10° SSW
SL-16 R/B 3.4 21:47:28 10° NW 21:52:35 36° WSW 21:57:40 10° S
SPOT 1/Viking Rocket 3.6 21:54:30 19° SSE 21:58:08 65° ENE 22:03:15 10° N
Cosmos 1766 Rocket 3.9 21:55:48 10° SSW 22:00:06 66° W 22:04:26 10° N
Cosmos 1242 Rocket 4.2 22:00:31 10° NNW 22:03:51 31° W 22:07:09 10° SSW
Abrixas rocket 2.7 22:01:05 10° NW 22:04:18 54° NNE 22:06:04 23° E
Cosmos 1328 Rocket 3.5 22:01:02 10° N 22:05:23 73° E 22:07:53 24° SSE
USA 245 3.5 22:07:27 22° S 22:09:29 63° W 22:13:40 10° NNW
Landsat 7 4.0 22:08:35 25° SE 22:11:13 57° ENE 22:15:54 10° N
Cosmos 1515 Rocket 3.6 22:07:00 10° N 22:11:18 60° E 22:13:24 28° SSE
YAOGAN 11 4.5 22:08:20 18° S 22:11:33 65° WSW 22:16:06 10° NNW
Cosmos 2233 Rocket 4.3 22:05:45 10° N 22:11:49 52° ENE 22:15:24 24° SE
Cosmos 1151 Rocket 3.5 22:07:35 10° N 22:11:50 46° ENE 22:13:43 28° SE
IGS 5A 4.3 22:11:57 25° ESE 22:13:38 36° ENE 22:17:28 10° N
USA 234 3.2 22:09:02 10° NE 22:15:36 78° SE 22:22:09 10° SW
H-2A R/B 3.1 22:13:53 23° ESE 22:15:38 32° ENE 22:19:25 10° N
Cosmos 1743 Rocket 3.4 22:13:15 20° S 22:16:10 82° E 22:20:30 10° N
Cosmos 2228 Rocket 3.1 22:14:53 10° N 22:19:30 86° W 22:22:04 26° S
Cosmos 468 Rocket 4.5 22:17:49 10° NNW 22:22:48 53° WSW 22:26:04 21° S
Cosmos 1703 3.9 22:22:24 34° SE 22:23:19 39° E 22:27:04 10° NNE
SL-08 RB Rocket 4.2 22:21:53 20° S 22:24:52 54° W 22:29:24 10° NNW
Terra 2.1 22:24:00 30° SE 22:26:09 56° ENE 22:30:50 10° N
Meteor 1-11 4.3 22:23:46 21° S 22:27:41 72° E 22:33:30 10° NNE
H-2A ROCKET BODY 3.8 22:28:57 10° SSW 22:33:22 28° SSE 22:46:58 10° E
Cosmos 1503 Rocket 4.2 22:32:17 31° SSE 22:34:20 49° ESE 22:39:19 10° NNE
Cosmos 332 Rocket 4.5 22:29:39 10° NNW 22:34:22 48° WSW 22:37:02 24° SSW
H-2A R/B 2.7 22:39:05 22° SSW 22:42:20 53° W 22:47:40 10° NNW
Meteor 1-27 4.2 22:37:01 10° N 22:42:52 89° W 22:45:45 31° S
Cosmos 304 Rocket 4.1 22:40:35 10° N 22:45:18 54° ENE 22:46:52 37° ESE
Cosmos 1626 2.0 22:44:38 54° S 22:45:23 79° E 22:49:07 10° N
Cosmos 2058 2.9 22:44:53 37° SSW 22:46:30 85° W 22:50:45 10° N
Cosmos 1726 4.3 22:47:13 10° NW 22:50:01 21° W 22:52:04 14° SW
CZ-4B R/B 3.9 22:45:04 10° NNE 22:50:08 46° E 22:51:29 38° SE
Cosmos 2263 Rocket 2.1 22:46:57 17° SSW 22:51:17 87° WNW 22:56:54 10° NNE
Cosmos 540 Rocket 3.8 22:46:45 10° NNW 22:51:49 55° ENE 22:53:35 37° SE
RESURS DK-1 4.2 22:52:09 10° NW 22:55:24 22° WSW 22:56:54 18° SW
Spot 4 4.1 22:55:05 40° SE 22:56:35 58° ENE 23:01:22 10° N
Cosmos 2285 Rocket 4.0 22:52:34 10° NNW 22:58:57 76° ENE 23:01:42 36° SSE
Sich 1 3.8 22:59:55 34° E 23:00:01 34° E 23:03:53 10° NNE
ERBS 3.7 23:03:56 10° WNW 23:06:28 29° WSW 23:06:28 29° WSW
deb Chang Zheng 4 3.5 23:03:54 10° NNE 23:08:18 86° W 23:09:31 48° SSW
PSLV R/B 3.8 23:09:22 50° NNW 23:09:22 50° NNW 23:11:36 10° NNW
ALOS 2 4.4 23:10:54 18° E 23:11:53 19° ENE 23:14:58 10° NNE
DELTA 2 DEB (DPAF) 4.2 23:11:06 53° SE 23:11:56 67° ENE 23:16:22 10° N
Cosmos 2151 4.3 23:11:00 21° SW 23:13:15 36° WNW 23:17:16 10° N
Cosmos 1707 Rocket 3.7 23:08:50 10° N 23:13:17 59° E 23:13:54 53° ESE
CZ-2C R/B 4.4 23:12:52 25° ESE 23:15:00 33° ENE 23:19:59 10° N
Tiangong 1 3.2 23:12:31 10° W 23:13:23 18° W 23:13:23 18° W
Cosmos 1354 Rocket 4.3 23:16:06 27° SW 23:18:58 66° WNW 23:24:11 10° NNE
Cosmos 1844 Rocket 3.2 23:24:43 37° ESE 23:25:01 38° ESE 23:30:08 10° NE
Cosmos 1072 Rocket 4.5 23:19:19 10° N 23:25:41 87° W 23:28:03 42° S
Cosmos 1455 2.7 23:23:33 10° NNW 23:27:17 48° W 23:27:33 47° WSW
CZ-4C R/B 2.2 23:28:14 51° SE 23:28:47 53° ESE 23:34:27 10° NE
Cosmos 1666 Rocket 3.4 23:28:28 69° SE 23:28:52 76° E 23:33:20 10° N
Cosmos 1464 Rocket 3.9 23:24:27 10° N 23:30:39 87° W 23:32:45 45° S
Lacrosse 5 3.7 23:30:55 10° W 23:34:12 17° WSW 23:34:30 17° SW
Cosmos 1943 4.5 23:30:08 10° NW 23:34:59 30° WSW 23:36:46 25° SW
Cosmos 1869 3.2 23:34:03 10° N 23:37:55 78° WNW 23:37:55 78° WNW
Cosmos 1805 Rocket 4.1 23:39:13 45° WSW 23:40:03 52° W 23:44:18 10° N
Cosmos 1633 Rocket 2.9 23:44:55 82° SSW 23:45:06 87° W 23:49:29 10° N
CZ-4C R/B 3.8 23:46:43 54° WSW 23:46:57 55° W 23:51:17 10° NNW
Cosmos 967 Rocket 4.4 23:42:00 10° NW 23:48:23 78° WSW 23:50:08 50° SSE
Cosmos 783 Rocket 4.4 23:43:22 10° NNW 23:48:41 76° WSW 23:49:34 61° S
Cosmos 1400 Rocket 3.3 23:49:33 51° ENE 23:49:33 51° ENE 23:53:09 10° NNE
SL-24 R/B - RUBIN 2 4.3 23:44:11 10° NNW 23:49:39 57° NE 23:50:51 45° E
H-2A R/B 3.7 23:51:01 22° WSW 23:51:39 22° W 23:55:01 10° NW
SME Rocket 3.5 23:52:50 47° WSW 23:52:54 47° W 23:57:15 10° NNW
